Location: Greenwich
(51.4790°N, 0.0090°E)
Time: 19:29:22
(UTC+01:00)

Tiros 1 - Pass Details

Date: 25 April 2024
Orbit: 624 x 657 km, 48.4° (Epoch: 22 May)

Event Time Altitude Azimuth Distance (km) Brightness Sun altitude
Exits shadow 01:33:26 19° 99° (E) 1,510 9.0 -24.8°
Drops below altitude 10° 01:34:46 10° 95° (E) 2,004 9.7 -24.7°
Sets 01:37:06 0° 91° (E) 2,908 10.6 -24.7°
